Wind_Speed
5 4 3 2 2 2 3 4 4 2 3 4 5 4 5 6 2 2 5 8 9 13 10 6 4 3 5 4 5 3 5 4 8 9 5 5 5 2 0 6 2 2 4 9 18
6 5 4 4 3 1 2 3 2 2 2 3 2 3 4 4 4 9 9 10 8 10 5 10 4 4 5 4 4 5 4 10 7 7 8 7 4 7 4 3 3 4 7 14 13
8 7 6 5 4 2 1 2 1 2 3 3 0 4 4 2 0 2 11 8 6 6 3 4 3 2 5 4 5 3 3 3 2 4 8 8 4 3 10 4 7 10 9 10 12
10 9 7 6 4 2 1 1 1 2 4 3 1 3 2 1 3 3 9 7 4 3 2 3 3 4 5 4 3 6 5 2 3 5 7 7 6 5 2 3 6 10 14 9 11
12 11 8 7 5 3 3 2 1 3 4 3 1 2 1 3 0 5 7 6 3 2 5 2 3 4 5 5 3 5 3 5 6 9 7 7 4 5 3 2 11 15 11 10 11
13 13 11 8 6 4 3 2 3 4 3 2 0 0 1 2 1 5 7 5 5 4 4 5 4 5 6 4 5 3 7 4 6 6 4 6 2 1 4 4 7 8 9 9 13
15 15 12 9 6 4 3 3 3 4 3 1 1 1 3 2 1 3 6 7 8 4 4 4 8 6 4 6 4 2 6 5 5 2 3 8 3 7 7 8 9 8 8 7 12
16 15 13 10 7 5 4 4 5 4 3 2 2 1 2 1 2 3 4 8 11 16 15 13 15 9 5 5 6 5 5 4 2 3 4 3 7 6 10 11 10 10 8 7 9
18 17 15 11 8 5 6 6 5 3 2 2 2 1 1 1 1 2 4 5 8 10 10 9 7 5 4 6 5 6 3 4 2 7 5 5 6 1 8 10 10 9 8 8 7
22 17 16 12 8 6 8 7 5 3 3 3 1 3 0 3 2 2 3 5 4 3 4 7 6 4 3 3 5 7 4 4 5 6 4 5 12 2 8 9 13 10 9 9 9
25 20 17 12 8 8 11 8 4 3 1 3 0 1 1 3 3 3 2 3 3 7 4 2 5 6 8 3 2 6 4 3 2 1 4 8 7 8 10 10 12 10 13 13 10
26 23 19 14 10 8 12 3 5 4 2 1 2 3 1 3 3 1 3 4 3 4 4 5 4 3 6 3 4 4 3 3 1 1 4 3 13 12 12 15 19 20 16 14 8
29 25 20 15 12 10 8 6 4 4 3 3 3 4 4 4 1 6 4 4 4 5 5 6 1 3 5 5 4 1 3 3 0 2 2 7 10 5 6 9 12 16 12 14 16
33 29 23 19 9 9 5 12 7 2 4 5 5 4 3 5 2 1 1 2 2 8 7 3 2 5 3 4 5 2 4 4 6 3 3 4 6 6 3 8 12 15 13 15 14
37 33 29 23 10 10 6 15 8 2 1 1 3 2 3 5 4 2 2 3 7 7 6 4 6 4 3 3 4 3 5 7 3 4 3 0 2 6 1 7 12 15 16 16 17
41 37 32 23 6 9 17 18 4 6 8 1 3 5 5 1 2 3 2 5 3 4 5 3 2 1 3 3 2 9 6 7 5 2 3 3 5 5 5 7 4 4 13 16 16
45 43 40 26 7 16 22 6 4 5 3 4 5 6 3 4 3 3 6 6 7 5 4 2 1 0 3 6 4 3 6 3 4 3 5 3 2 11 8 7 7 7 9 12 14
43 42 32 23 21 26 14 4 6 4 7 2 4 5 7 5 2 4 6 5 5 4 4 7 4 8 4 3 7 5 5 6 8 3 3 2 7 7 7 5 7 7 6 9 12
47 31 18 21 28 32 6 9 8 7 8 11 4 5 2 2 4 4 7 6 8 11 7 6 1 2 3 2 2 5 3 4 8 2 3 5 9 10 7 9 8 6 6 10 13
31 19 12 30 25 24 4 18 5 4 7 3 9 5 9 8 7 7 10 6 7 10 3 8 4 2 0 2 2 2 5 4 3 3 4 5 6 9 4 6 6 7 9 9 11
20 6 18 36 17 9 8 10 11 5 6 7 9 6 5 9 8 6 6 3 5 7 5 5 4 1 2 7 8 2 2 3 3 4 6 1 6 8 12 10 9 10 10 12 15
5 4 30 44 7 3 12 9 7 11 5 5 4 3 8 10 7 8 12 5 4 11 10 5 5 4 6 2 2 4 6 8 5 6 2 4 8 3 8 7 8 8 8 8 13
3 3 20 34 10 11 4 5 4 9 8 8 8 4 3 8 3 7 7 2 4 7 11 8 2 3 5 3 2 6 6 4 4 3 6 6 6 2 5 6 8 9 7 8 11
4 4 1 5 2 18 17 11 15 9 9 6 6 6 5 3 2 7 7 1 2 3 1 6 3 7 10 6 6 6 8 13 7 3 5 9 8 17 10 9 8 8 7 9 12
2 4 4 9 15 7 12 9 15 11 11 16 4 9 9 5 2 5 3 4 3 3 3 5 6 4 3 1 3 5 7 20 21 24 10 12 15 27 9 12 11 9 6 9 12
3 3 2 1 12 19 10 18 24 25 11 16 19 25 18 17 23 15 9 4 6 3 4 0 3 3 4 1 3 7 8 14 21 17 18 17 16 20 7 6 6 11 10 11 15
4 2 1 7 9 10 21 23 21 6 15 12 23 5 9 19 4 5 2 8 11 12 9 6 6 4 5 3 2 13 18 17 9 7 13 16 21 22 7 9 13 10 12 15 17
Wind_Direction
213 227 227 244 272 336 353 1 7 46 83 114 105 50 42 31 40 86 49 342 330 339 340 341 43 77 68 68 41 121 77 161 187 162 182 171 120 35 98 105 60 358 129 132 141
215 234 238 242 253 290 349 355 26 78 117 124 111 19 6 14 65 65 7 352 344 338 5 27 24 26 50 44 25 70 111 196 177 163 157 153 119 148 111 107 47 62 81 127 139
222 232 241 250 254 264 327 340 47 125 140 152 338 346 353 17 141 339 354 353 348 342 355 11 328 41 56 46 12 27 120 147 13 164 124 130 111 120 127 229 201 180 160 145 129
225 231 238 254 266 278 257 279 139 160 162 177 288 335 360 59 197 338 354 355 360 8 19 25 25 51 74 80 10 93 47 91 94 115 99 127 123 100 232 243 163 153 148 143 142
231 234 236 248 260 268 254 213 166 174 172 179 225 326 141 60 197 350 2 14 49 84 70 55 73 107 114 101 78 80 122 51 80 88 78 100 76 161 215 43 117 137 148 153 151
223 237 242 244 257 259 245 217 177 162 159 164 216 193 181 156 22 1 12 45 68 90 71 48 123 115 92 61 64 83 79 91 41 79 84 109 150 6 229 149 127 149 169 167 161
221 229 239 246 248 246 225 185 175 162 152 148 133 132 66 146 62 32 42 48 56 110 104 99 125 75 131 89 155 72 73 53 25 39 115 137 240 228 173 160 168 187 185 175 184
228 217 232 242 244 230 185 170 162 168 163 156 129 92 157 115 80 72 81 87 87 87 92 90 98 100 72 120 39 66 58 118 247 168 188 100 259 207 164 161 193 199 200 189 195
226 214 226 230 238 223 174 159 156 158 170 140 117 84 234 166 86 51 83 99 87 88 83 82 72 85 46 93 50 14 183 188 249 206 152 180 265 227 162 175 200 207 204 203 198
219 216 217 223 229 201 165 147 130 134 140 115 69 49 136 192 106 59 95 94 101 86 50 47 52 72 64 96 203 189 202 222 209 216 175 193 252 192 193 192 211 205 211 209 199
216 213 210 213 219 185 156 136 51 345 70 185 89 62 127 130 103 91 59 92 58 52 129 35 94 194 201 167 70 131 121 190 249 198 169 231 281 247 207 215 224 217 213 215 204
213 209 201 204 196 201 181 183 201 153 142 264 124 98 105 191 108 223 159 129 135 142 102 39 222 176 144 154 91 109 126 221 305 195 184 343 268 247 199 221 214 214 212 210 187
209 205 193 189 182 197 207 206 173 148 112 226 208 167 176 157 220 190 161 148 131 133 164 153 185 131 129 153 142 89 173 179 173 29 283 342 286 245 246 231 218 221 213 206 195
205 198 187 171 172 180 207 202 158 161 51 226 219 238 124 133 248 141 297 150 92 158 143 160 158 156 128 166 126 176 156 129 123 105 249 26 284 300 272 255 227 223 204 198 189
202 194 186 173 155 163 173 175 157 80 318 140 167 108 140 154 120 321 0 17 158 142 131 206 157 149 154 192 164 170 115 112 96 88 48 359 353 266 294 263 245 222 210 200 192
199 190 182 181 176 177 162 155 113 52 242 177 118 163 124 98 101 117 77 63 131 81 35 93 72 43 126 72 38 152 83 57 70 65 356 257 184 255 210 216 266 225 205 197 188
201 191 184 173 178 169 158 134 59 175 329 216 184 165 129 142 125 139 160 164 157 118 197 54 157 261 136 85 15 95 95 1 354 17 223 350 224 254 265 244 222 238 203 195 182
195 181 176 167 158 159 147 54 186 221 189 156 112 107 168 156 175 148 130 195 225 100 131 157 279 171 176 181 178 187 153 159 198 186 257 101 238 247 228 250 243 240 209 169 175
179 159 164 167 159 159 112 204 216 196 168 142 72 105 230 227 144 144 195 208 203 177 173 145 219 38 71 93 90 192 195 157 105 72 62 231 276 296 273 255 247 221 177 177 181
156 153 161 164 156 137 132 221 212 193 131 146 168 153 173 183 155 190 173 202 204 180 189 197 97 354 354 93 50 213 169 93 345 148 251 276 277 241 271 257 229 215 212 189 180
154 153 158 155 145 136 189 229 213 221 170 157 196 143 182 172 174 199 204 280 202 166 120 143 113 311 129 211 168 142 253 19 117 161 174 211 257 222 225 207 213 224 200 188 186
132 157 157 144 135 223 205 184 195 196 190 234 126 106 166 168 166 201 207 245 180 147 164 185 114 162 193 245 173 177 203 178 139 232 220 151 265 274 229 225 214 244 211 185 184
95 80 172 172 170 203 199 227 198 198 184 180 204 190 165 167 171 196 187 42 201 171 159 183 230 72 356 357 349 211 191 166 130 99 203 147 256 122 294 250 239 238 210 180 170
113 127 304 224 313 201 193 199 207 186 201 172 165 126 136 137 295 178 183 11 319 189 21 106 140 170 194 183 130 196 194 184 145 134 195 226 293 263 234 238 237 238 223 178 182
141 182 175 197 224 217 214 183 207 219 211 182 214 200 162 134 95 174 134 155 57 345 100 161 205 156 257 87 169 206 185 190 198 219 200 221 220 252 237 228 228 218 173 173 184
158 169 157 150 198 208 184 216 208 212 172 216 220 205 189 205 199 193 144 203 171 82 154 252 192 115 302 336 198 251 215 198 216 232 257 268 268 255 232 211 211 205 182 195 201
162 123 192 185 184 195 215 223 228 164 231 224 226 125 210 231 79 95 43 141 161 158 180 165 143 113 250 48 16 271 202 196 196 202 214 222 235 257 257 231 236 200 197 206 207
Height
794 795 795 796 797 796 794 792 792 792 791 792 792 793 792 792 791 791 793 795 793 792 790 788 788 788 787 793 797 802 833 850 845 849 844 848 851 857 858 860 863 863 864 866 869
792 793 794 795 795 793 792 791 791 792 792 792 793 793 792 792 792 792 795 793 793 792 791 790 791 790 798 800 805 813 832 834 829 834 839 845 848 855 859 862 864 866 867 869 871
791 792 793 794 793 792 790 790 790 792 792 793 794 793 792 792 794 795 793 792 792 792 792 792 793 794 803 805 814 820 828 825 827 829 832 844 852 854 859 860 861 862 866 869 870
790 791 792 793 792 791 790 790 790 792 792 793 794 793 792 792 800 794 792 792 792 792 793 793 796 802 812 815 816 823 830 827 829 833 836 843 851 855 854 849 851 858 863 866 869
790 791 790 791 790 790 790 790 790 792 792 792 793 793 792 794 796 794 793 791 791 792 793 794 798 805 814 817 819 824 828 835 836 838 843 845 852 854 854 855 855 859 863 865 868
787 789 790 789 790 790 790 790 791 791 792 792 792 793 793 795 795 794 792 792 791 792 794 795 798 803 817 824 824 832 834 838 840 842 844 849 854 853 857 859 861 861 863 865 867
785 787 789 789 788 789 790 790 791 791 792 792 793 792 792 794 794 794 793 793 792 792 795 797 798 803 816 826 831 833 839 840 843 842 845 848 852 854 854 859 861 862 863 865 866
783 784 786 788 788 787 788 790 790 792 792 793 792 792 794 794 794 794 794 794 794 794 797 799 800 808 817 826 833 838 844 849 842 843 848 846 846 844 853 858 860 862 863 864 864
780 782 784 785 786 787 787 789 791 792 793 792 793 793 794 795 795 795 795 795 795 796 798 800 802 819 823 836 846 850 848 849 844 843 847 850 844 841 852 855 857 860 862 862 864
776 779 781 783 785 786 788 790 791 792 793 793 794 795 797 795 795 796 796 796 796 798 801 806 820 831 836 838 839 845 845 846 845 845 848 852 849 844 851 853 850 856 859 859 858
772 775 779 781 784 785 789 790 796 797 792 790 795 795 795 795 795 797 797 797 798 802 812 815 824 830 829 830 828 838 838 839 845 843 845 851 849 845 849 851 850 852 851 852 855
768 771 775 779 781 785 786 787 783 785 793 793 793 793 794 795 796 796 797 800 801 812 815 823 824 819 824 828 827 832 836 839 842 842 847 847 841 834 840 834 832 834 840 844 850
763 767 772 778 779 783 785 783 783 784 789 793 792 792 792 796 795 798 798 798 804 812 814 819 819 819 821 826 827 835 837 845 838 847 845 849 837 827 823 826 824 824 825 833 837
755 763 770 774 783 780 783 784 782 786 809 789 794 791 792 793 796 797 798 800 803 812 817 814 820 819 822 824 827 828 833 844 850 847 857 857 859 825 817 822 821 816 822 824 830
747 756 763 770 771 777 777 782 784 787 833 787 794 791 791 793 799 801 799 799 807 811 813 817 824 821 822 821 824 828 841 844 850 858 854 857 869 824 819 811 806 804 809 815 819
741 748 759 766 771 773 775 780 785 823 821 797 793 793 795 795 797 800 801 802 810 813 820 824 825 825 825 835 831 842 843 853 866 868 903 856 855 821 811 797 790 794 800 805 813
733 741 750 756 765 770 776 782 819 829 788 798 794 793 793 800 800 799 803 807 811 820 820 824 825 827 827 835 834 836 843 903 891 919 883 871 864 814 793 792 790 786 797 801 807
733 741 747 753 760 770 774 794 825 808 794 789 791 794 791 794 798 803 805 806 806 810 828 821 831 830 826 826 832 839 837 863 874 891 874 865 862 797 784 782 787 787 790 799 807
730 741 748 754 760 766 779 796 781 788 777 781 789 802 799 793 795 799 806 805 797 804 793 821 811 829 827 827 832 842 849 841 895 943 900 845 823 791 778 788 785 788 794 799 802
729 738 745 754 761 768 793 764 774 765 769 771 765 788 797 801 794 800 802 783 782 789 788 801 822 834 831 826 833 836 840 850 884 867 887 854 839 788 765 768 781 786 792 796 799
727 737 743 750 765 777 784 767 762 758 758 761 764 784 780 791 786 792 783 774 775 789 786 799 802 840 832 831 832 846 852 854 844 847 853 872 807 781 763 766 768 774 782 787 792
722 733 743 747 768 774 760 767 750 746 754 754 757 765 773 780 783 783 774 773 775 775 784 792 817 843 830 826 827 829 829 837 852 846 863 857 808 763 767 765 767 767 775 782 786
725 741 744 741 738 753 745 748 743 746 752 753 756 751 766 772 771 775 773 778 777 774 777 790 821 853 833 828 830 827 823 826 859 860 859 842 786 765 773 768 769 768 773 781 785
725 742 749 745 731 727 727 736 741 736 741 742 745 752 761 773 771 775 769 781 779 774 772 775 808 798 773 768 804 819 814 810 825 862 839 805 787 746 758 766 764 769 771 778 781
721 723 724 732 726 730 727 727 734 733 732 731 745 738 749 768 777 771 779 778 777 780 779 782 793 816 815 792 795 789 798 800 796 777 787 758 776 741 751 760 758 760 768 776 779
718 720 724 723 721 728 724 713 717 713 722 727 718 718 724 718 717 752 761 767 760 783 783 789 790 809 811 804 801 798 786 795 788 781 785 776 775 731 741 749 754 754 763 767 769
716 717 717 710 717 719 706 694 698 715 715 711 714 732 737 718 734 733 747 748 751 764 779 790 803 803 797 811 815 784 782 780 782 788 769 779 737 721 738 740 739 749 753 754 755